Regional Weather Roundup
Issued by NWS

Home | Current Version | Previous Version | Text Only | Print | Product List | Glossary Off
Versions: 1 2 3 4 5 6 7 8 9 10 11 12 13 14 15 16 17 18 19 20 21 22 23 24 25 26 27 28 29 30 31 32 33 34 35 36 37 38 39 40 41 42 43 44 45 46 47 48 49 50

000
ASUS43 KDTX 230410
RWRMI
MICHIGAN HOURLY REGIONAL WEATHER ROUNDUP
NATIONAL WEATHER SERVICE DETROIT/PONTIAC MI
1200 AM EDT WED AUG 23 2017

NOTE: "FAIR" INDICATES FEW OR NO CLOUDS BELOW 12,000 FEET WITH NO
SIGNIFICANT WEATHER AND/OR OBSTRUCTION TO VISIBILITY.

MIZ047>049-052>055-059>063-066>070-074>076-081>083-230500-
SOUTHEAST LOWER MICHIGAN

CITY           SKY/WX    TMP DP  RH WIND       PRES   REMARKS
ADRIAN         CLEAR     60  53  77 NW6       29.94S
ALMA           CLEAR     58  53  81 SW5       29.90S
ANN ARBOR      CLEAR     59  53  80 W5        29.92R
BAD AXE        CLEAR     59  50  72 NW3       29.87R
CARO           CLEAR     57  52  82 CALM      29.87S
DETROIT CITY   CLEAR     67  51  56 W6        29.89S
DETROIT        PTCLDY    64  54  69 W7        29.92R
FLINT          CLEAR     58  52  80 SW6       29.90S
GROSSE ILE     CLEAR     66  54  63 NW8       29.90R
HILLSDALE      CLEAR     57  52  82 W5        29.95S
HOWELL         CLEAR     58  53  82 W5        29.92R

CITY           SKY/WX    TMP DP  RH WIND       PRES   REMARKS
JACKSON        CLEAR     60  52  74 W3        29.94R
LAMBERTVILLE   CLEAR     61  54  79 W3        29.92S
LANSING        CLEAR     61  52  72 W8        29.93R
LAPEER         FAIR      61  52  71 W5        29.89S
MASON          CLEAR     60  53  77 SW3       29.93S
MONROE         CLEAR     61  55  81 NW6       29.91R
MT. CLEMENS    CLEAR     64  53  66 W7        29.87R
PONTIAC        CLEAR     62  53  72 W10       29.90R
PORT HOPE        N/A     65  50  58 W10G18    29.83R
PORT HURON     CLEAR     61  55  82 CALM      29.88R
TRI CITIES     CLEAR     60  55  83 SW6       29.89S
MIDLAND        FAIR      57  54  88 CALM      29.87S
TROY           CLEAR     66  51  57 W7        29.92R
SAGINAW HB     CLEAR     59  52  77 W6        29.87S
$$
MIZ043>046-050>051-056>058-064>065-071>073-077>080-230500-
SOUTHWEST LOWER MICHIGAN

CITY           SKY/WX    TMP DP  RH WIND       PRES   REMARKS
BATTLE CREEK   CLEAR     59  55  87 SW7       29.96R
BENTON HARBOR  CLEAR     71  49  45 NW7       29.96R
BIG RAPIDS     CLEAR     59  51  76 W6        29.90S
COLDWATER      CLEAR     58  55  90 W3        29.96R
FREMONT        FAIR      58  56  91 W5        29.92R
HOLLAND        CLEAR     68  53  58 W5        29.94S
GRAND RAPIDS   PTCLDY    63  55  75 SW7       29.92S
IONIA          FAIR      59  52  77 SW7       29.92R
KALAMAZOO      CLEAR     60  53  77 SW3       29.96S
LUDINGTON      CLEAR     66  52  60 NW9       29.90S
MARSHALL       CLEAR     57  55  94 CALM      29.95R
MOUNT PLEASANT PTCLDY    60  53  76 W5        29.88S
MUSKEGON       PTCLDY    70  55  59 W9        29.92S
SOUTH HAVEN    PTCLDY    70  51  50 NW7       29.95S
$$
MIZ016>042-230500-
NORTHERN LOWER MICHIGAN

CITY           SKY/WX    TMP DP  RH WIND       PRES   REMARKS
ALPENA         CLEAR     59  52  77 SW6       29.82S
BEAVER ISLAND  CLEAR     64  51  64 W12G21    29.82S
BELLAIRE       CLEAR     60  51  72 CALM      29.84S
CADILLAC       CLEAR     57  51  79 W6        29.88F
CHARLEVOIX     CLEAR     65  52  62 W15       29.85F
FRANKFORT      CLEAR     67  52  59 NW20G28   29.87S
GAYLORD        CLEAR     54  50  86 W3        29.85S
GRAYLING       CLEAR     55  50  82 SW3       29.87S
HARBOR SPRINGS CLEAR     62  49  63 W8        29.82S
HOUGHTON LAKE  CLEAR     61  52  72 NW9       29.87S
MANISTEE       CLEAR     66  52  60 NW9       29.88S
OSCODA         CLEAR     56  50  82 W6        29.84S
PELLSTON       CLEAR     57  51  80 NW3       29.81F
ROGERS CITY    MOCLDY    57  51  80 SW6       29.82R
TRAVERSE CITY  CLEAR     63  53  70 SW8       29.84F
$$
MIZ007>008-015-230500-
EASTERN UPPER MICHIGAN

CITY           SKY/WX    TMP DP  RH WIND       PRES   REMARKS
KINROSS        PTCLDY    55  51  86 W7        29.78S
MACKINAC ISLAN CLEAR     60  54  79 W9        29.79S
NEWBERRY       PTCLDY    54  53  97 W8        29.79S
S. S. MARIE    CLEAR     60  51  72 W9        29.75S
MUNISING         N/A     61  54  77 VRB5      29.82S
$$
MIZ004>006-011>014-085-230500-
CENTRAL UPPER MICHIGAN

CITY           SKY/WX    TMP DP  RH WIND       PRES   REMARKS
MANISTIQUE     CLEAR     57  50  79 W9        29.82S
ESCANABA       CLEAR     54  51  90 W5        29.85F
MENOMINEE      CLEAR     58  52  80 VRB3      29.90S
SAWYER-GWINN   CLEAR     54  50  86 W7        29.86S
$$
MIZ001>003-009>011-084-230500-
WESTERN UPPER MICHIGAN

CITY           SKY/WX    TMP DP  RH WIND       PRES   REMARKS
IRON MOUNTAIN  CLEAR     58  50  75 NW12      29.88S
HOUGHTON       MOCLDY    58  54  86 NW13      29.86R
COPPER HARBOR    N/A     58  53  84 N14       29.83R
IRONWOOD       PTCLDY    54  53  97 W8        29.95S
$$

ABBREVIATIONS USED IN REMARKS
   TC - TEMPERATURE IN CELSIUS
  WCI - WIND CHILL INDEX
   HX - HEAT INDEX
  VSB - VISIBILITY





USA.gov is the U.S. government's official web portal to all federal, state and local government web resources and services.